Regional Weather Roundup
Issued by NWS Raleigh/Durham, NC

Home | Current Version | Previous Version | Text Only | Print | Product List | Glossary On
Versions: 1 2 3 4 5 6 7 8 9 10 11 12 13 14 15 16 17 18 19 20 21 22 23 24 25 26 27 28 29 30 31 32 33 34 35 36 37 38 39 40 41 42 43 44 45 46 47 48 49 50
352
ASUS42 KRAH 282110
RWRRAH
NORTH CAROLINA WEATHER ROUNDUP
NATIONAL WEATHER SERVICE RALEIGH NC
500 PM EDT THU JUL 28 2016

NOTE: "FAIR" INDICATES FEW OR NO CLOUDS BELOW 12,000 FEET WITH NO
SIGNIFICANT WEATHER AND/OR OBSTRUCTIONS TO VISIBILITY.

NCZ001-053-055-056-065-067-282200-
WESTERN NORTH CAROLINA

CITY           SKY/WX    TMP DP  RH WIND       PRES   REMARKS
ASHEVILLE      MOSUNNY   87  64  46 SW13      29.98S
JEFFERSON      CLOUDY    77  70  79 CALM      30.00F
HICKORY        MOSUNNY   91  69  48 SW13G23   29.88F HX  96
RUTHERFORDTON    N/A     89  69  51 SW13G23   29.91S
MOUNT AIRY     SUNNY     93  71  48 S9        29.87F HX 100
BOONE          SUNNY     85  66  53 S10G18    30.01F
$$

NCZ021-022-025-041-071-084-088-282200-
CENTRAL NORTH CAROLINA

CITY           SKY/WX    TMP DP  RH WIND       PRES   REMARKS
CHARLOTTE      MOSUNNY   96  66  37 SW18G28   29.88F HX  99
GREENSBORO     PTSUNNY   95  66  38 SW16G23   29.85F HX  98
WINSTON-SALEM  PTSUNNY   93  66  40 SW14G21   29.86F HX  96
RALEIGH-DURHAM MOSUNNY   96  72  45 SW12      29.83F HX 104
FORT BRAGG     NOT AVBL
FAYETTEVILLE   SUNNY     98  69  38 SW16      29.86F HX 104
BURLINGTON     MOSUNNY   93  71  48 S7        29.84F HX 100
LAURINBURG     MOSUNNY   96  71  44 SW15G23   29.88F HX 103
$$

NCZ011-015-027-028-043-044-047-080-103-282200-
NORTHEASTERN NORTH CAROLINA

CITY           SKY/WX    TMP DP  RH WIND       PRES   REMARKS
ROCKY MT-WILSO MOSUNNY   96  73  47 SW13      29.83F HX 105
GREENVILLE     SUNNY     99  72  41 SW12      29.85F HX 107
WASHINGTON     SUNNY     95  74  51 SW10G16   29.83F HX 106
ELIZABETH CITY CLOUDY    92  78  63 S7        29.82F HX 107
MANTEO         NOT AVBL
CAPE HATTERAS  PTSUNNY   87  80  79 SW9       29.88S HX 103
$$

NCZ078-087-090-091-093-098-101-282200-
SOUTHEASTERN NORTH CAROLINA

CITY           SKY/WX    TMP DP  RH WIND       PRES   REMARKS
LUMBERTON      SUNNY     95  71  45 S10G18    29.87F HX 102
GOLDSBORO      NOT AVBL
KINSTON        SUNNY     99  68  36 SW12G18   29.85F HX 104
KENANSVILLE    NOT AVBL
NEW BERN       SUNNY     95  75  52 SW10      29.86F HX 107
CHERRY POINT   MOSUNNY   93  75  55 S15G21    29.87F HX 104
BEAUFORT       SUNNY     88  80  77 SW17      29.88F HX 104
JACKSONVILLE   MOSUNNY   96  68  39 SW13      29.86F HX 101
WILMINGTON     SUNNY     94  73  50 SW17G24   29.88F HX 103
$$





USA.gov is the U.S. government's official web portal to all federal, state and local government web resources and services.